Location: Baumgarten
(49.0970°N, 12.7493°E)
Time: 08:28:48
(UTC+00:00)

SAR-Lupe-2 - Pass Details

Date: 05 July 2020
Orbit: 481 x 485 km, 98.1° (Epoch: 01 August)

Event Time Altitude Azimuth Distance (km) Brightness Sun altitude
Rises 20:04:07 0° 21° (NNE) 2,567 7.6 -6.7°
Reaches altitude 10° 20:06:18 10° 30° (NNE) 1,681 6.5 -7.0°
Maximum altitude 20:09:40 36° 98° (E) 783 4.2 -7.4°
Drops below altitude 10° 20:13:00 10° 167° (SSE) 1,664 5.7 -7.7°
Enters shadow 20:13:43 - 171° (S) 1,946 6.1 -7.8°
